Wind_Speed
14 13 12 13 13 13 13 14 14 13 13 12 12 11 11 11 10 10 11 11 11 11 10 10 12 14 16 18 19 19 20 20 20 19 18 17 17 17 18 19 21 22 23 22 20 19 18 17 17 17 17 16 16 17 18 19 19 19 19 20 20 20 21 22 22 22 22 22 23 24 24 24 24 25 25 25 25 26 26 26 26 26 26 26 25
14 13 13 14 15 14 14 15 15 14 14 13 13 13 13 12 11 12 13 13 12 12 11 10 11 14 16 18 19 20 21 21 20 20 19 18 18 19 20 21 23 23 22 21 20 18 18 18 17 17 16 16 17 18 19 19 19 19 19 19 20 21 21 21 21 22 23 23 24 24 24 25 25 25 25 26 26 26 26 26 26 26 26 26 25
14 14 15 16 17 16 15 16 16 16 16 16 16 16 15 14 14 15 15 15 14 13 12 12 13 15 17 19 20 21 22 22 21 20 20 20 20 20 21 23 24 23 22 20 19 18 18 18 17 16 16 17 18 18 19 19 19 19 19 19 20 21 21 21 22 23 23 24 24 24 24 25 25 25 25 25 25 26 26 26 26 26 26 26 25
15 15 15 17 17 16 16 17 16 17 18 19 19 20 19 17 17 18 17 17 15 16 16 15 16 18 19 19 21 22 22 22 21 21 21 21 21 22 23 24 24 23 21 20 18 18 18 17 16 16 16 17 18 18 18 18 18 18 19 20 20 21 21 22 23 24 24 24 24 24 25 25 25 25 25 25 26 26 26 26 26 26 26 26 25
16 16 16 16 16 16 17 17 17 18 19 20 21 22 22 21 20 20 19 19 17 18 18 17 18 20 21 21 21 22 22 22 22 22 23 23 23 24 25 25 24 22 21 19 18 18 17 16 16 16 17 18 18 18 18 18 18 18 19 20 21 22 22 23 24 24 24 24 24 25 24 24 24 25 25 25 26 26 26 26 26 26 26 25 25
16 16 16 16 16 17 18 17 17 18 19 20 22 22 22 22 22 21 21 21 20 19 18 17 18 20 21 22 22 23 23 23 23 23 24 24 24 25 25 24 23 21 20 19 18 17 16 16 16 17 17 17 17 17 17 17 18 18 19 20 21 22 23 24 24 24 24 24 24 24 24 24 24 25 25 25 26 26 26 26 26 26 25 25 24
18 17 17 17 18 19 19 18 17 18 19 20 21 21 21 21 21 21 21 21 20 19 18 19 19 20 21 22 22 23 23 24 24 24 24 25 26 26 25 23 21 20 19 18 18 16 16 16 17 17 17 17 17 17 17 17 18 19 20 21 22 22 23 24 24 24 24 24 24 24 24 24 24 24 25 25 25 26 26 26 25 25 25 24 24
18 18 19 19 19 19 19 18 18 17 18 20 20 20 20 19 20 20 20 20 20 19 19 20 20 21 21 22 22 23 23 24 24 24 25 26 26 25 23 22 20 19 18 17 16 16 17 17 17 17 16 16 16 16 17 17 18 19 20 21 22 22 23 23 24 24 24 23 23 23 23 23 24 24 24 24 25 25 25 25 25 25 25 24 25
17 17 18 19 19 19 19 18 18 17 18 18 18 19 19 19 19 20 19 20 20 20 20 21 22 22 23 23 24 24 24 25 25 25 26 26 25 23 22 20 19 18 17 16 15 16 17 18 17 16 16 15 15 16 16 17 18 19 20 21 21 22 22 23 23 23 23 23 23 23 23 23 23 23 23 24 24 24 25 25 25 25 25 25 25
17 17 17 18 18 18 18 18 18 18 18 18 18 18 19 19 19 19 19 20 20 20 21 22 23 23 24 25 26 26 25 26 26 26 25 24 23 22 20 19 18 17 17 15 14 15 16 17 17 16 15 15 15 15 16 16 17 18 19 20 21 21 22 22 22 22 22 22 22 22 22 22 22 22 23 23 23 23 23 24 24 24 25 25 25
17 17 17 18 18 18 17 18 18 17 18 18 18 18 18 19 19 18 19 20 21 21 21 23 23 23 24 25 26 26 26 26 25 25 24 23 21 20 18 18 17 16 16 15 14 14 15 16 16 15 14 14 14 14 15 16 17 18 19 20 20 20 21 21 21 20 20 20 20 20 20 20 21 21 21 21 22 22 22 22 23 23 24 24 25
16 16 17 18 18 18 17 17 17 17 17 17 17 18 18 18 18 18 18 19 21 21 21 22 23 23 23 24 25 25 25 25 24 23 22 21 20 18 17 17 16 15 15 16 14 13 14 16 16 14 13 13 13 14 14 15 17 18 18 19 19 19 19 19 19 18 18 18 18 19 19 19 19 19 20 20 20 20 21 21 22 22 23 23 24
14 15 16 17 17 17 17 17 17 17 17 17 17 17 17 17 18 18 18 19 21 21 21 21 22 22 22 23 24 23 22 23 22 21 20 19 19 18 15 15 15 14 15 16 13 12 13 14 15 13 12 13 13 13 14 15 16 17 17 17 18 18 18 17 17 16 16 16 17 17 17 18 18 18 18 19 19 19 19 20 20 21 22 22 22
13 14 14 15 16 16 16 16 16 16 16 17 17 16 17 17 17 17 17 18 20 20 20 21 21 21 21 21 22 22 21 20 20 19 18 17 17 16 14 13 14 14 15 15 13 11 11 12 13 12 11 12 13 13 13 14 15 16 16 16 16 16 16 15 14 14 14 14 15 16 16 16 16 17 17 17 18 18 18 19 19 20 20 20 20
13 13 13 14 14 14 15 15 15 15 15 16 16 16 16 16 16 17 17 17 18 19 18 19 20 20 20 20 19 19 19 19 17 15 14 16 15 14 13 13 14 14 14 14 12 10 10 11 12 11 11 12 12 12 13 13 14 14 14 15 15 14 14 13 12 12 12 12 13 14 14 15 15 16 16 17 17 17 17 18 18 18 18 18 19
12 12 12 13 13 13 13 14 14 14 14 15 15 15 15 15 16 16 16 17 18 18 17 17 18 18 18 19 17 16 16 17 16 12 10 13 14 13 12 12 14 14 13 13 12 9 8 9 10 11 11 12 12 12 12 12 12 12 12 12 13 12 11 11 10 10 10 11 11 12 13 14 15 15 16 16 16 17 17 17 16 16 17 18 19
12 12 12 12 12 12 12 13 13 13 13 13 14 14 14 14 15 16 16 16 17 17 16 16 16 15 16 16 16 15 14 14 12 9 8 11 12 12 11 11 12 13 12 11 11 10 8 8 10 11 12 12 11 11 11 10 10 10 10 10 10 10 9 9 9 9 9 9 10 11 12 13 14 15 15 16 16 16 17 17 16 17 18 19 20
12 11 11 11 11 11 11 12 12 12 12 12 12 13 13 13 14 14 15 15 15 15 15 14 14 14 14 14 13 13 13 12 9 7 8 9 9 10 11 11 12 12 12 10 9 10 10 9 9 11 12 12 11 11 10 9 8 8 8 8 7 7 7 7 7 8 8 9 10 10 11 12 13 14 14 15 16 16 17 17 17 18 19 20 21
11 11 11 11 11 11 11 11 11 11 11 12 12 12 12 12 12 12 13 14 13 13 13 13 13 12 12 12 11 10 11 10 8 7 7 7 7 8 9 11 11 11 11 10 8 9 11 10 9 10 11 11 11 10 9 8 7 7 7 6 6 5 5 6 6 7 8 8 9 9 10 11 12 13 14 15 16 16 17 17 18 19 20 21 22
12 11 11 11 10 10 11 11 11 10 11 11 12 12 11 11 11 10 11 12 12 11 11 11 11 10 10 10 10 9 8 8 8 7 6 6 7 8 9 10 10 9 10 9 8 8 9 10 10 10 10 11 10 9 8 7 6 6 5 5 5 4 3 4 5 6 7 8 8 8 9 10 11 12 14 15 16 17 17 18 19 20 21 22 22
11 11 11 11 11 10 10 10 10 10 10 10 10 11 10 10 10 9 9 9 10 10 9 9 9 8 8 8 8 8 8 7 6 6 6 7 8 8 9 10 10 9 9 9 8 8 8 10 10 10 9 10 9 8 7 6 5 5 4 4 4 3 2 2 3 5 7 8 7 8 9 10 11 13 14 16 17 18 18 19 19 20 20 21 22
11 11 11 11 11 11 10 10 10 10 9 9 9 9 9 9 8 8 8 7 7 8 8 7 7 7 6 7 7 6 6 6 6 5 5 6 8 7 6 7 9 9 9 9 9 8 9 9 9 9 9 8 8 7 6 5 4 3 3 3 3 2 2 2 3 5 6 8 8 8 10 11 12 14 16 17 18 18 19 20 20 20 20 21 21
9 10 11 11 11 11 11 10 10 10 9 9 9 8 8 8 7 7 7 6 6 6 6 6 6 6 5 5 5 5 6 6 6 5 5 5 7 8 6 5 6 8 8 9 9 9 9 9 9 9 8 8 7 6 5 4 3 2 1 2 2 3 3 4 5 5 7 8 8 9 11 13 14 16 18 18 19 19 19 20 20 21 21 21 21
9 9 10 10 11 11 11 11 10 9 9 9 9 8 8 8 7 7 6 6 6 5 5 5 5 5 5 5 5 5 5 5 6 6 5 5 6 9 9 6 3 4 6 7 8 9 9 8 8 8 7 7 6 5 4 3 2 1 1 2 3 4 5 5 6 7 7 8 9 10 12 13 15 17 19 19 20 20 20 20 20 20 21 21 21
8 8 8 9 10 10 10 10 10 10 9 9 9 9 8 8 7 7 6 6 5 5 5 5 5 5 5 4 4 5 5 5 6 6 6 5 5 7 9 8 4 3 4 6 6 7 7 8 7 7 6 6 5 4 3 3 2 2 2 3 4 5 6 6 7 8 9 10 11 11 12 14 16 18 19 20 20 21 20 20 19 20 20 20 21
9 8 8 8 9 9 9 9 9 10 9 8 8 8 8 8 7 7 6 6 5 5 5 5 5 5 5 5 4 5 5 5 6 6 6 6 6 6 8 8 7 5 5 4 4 4 5 6 6 6 5 4 4 4 3 3 3 3 4 4 5 6 7 7 8 9 10 11 12 12 13 15 17 18 19 20 20 21 20 19 18 18 19 20 21
9 9 8 7 7 7 8 8 8 9 9 8 8 8 8 7 7 6 6 6 6 5 5 5 5 5 6 6 5 5 5 5 6 7 6 6 6 7 7 7 7 6 6 5 3 2 2 3 4 4 4 4 4 3 4 4 4 5 5 6 7 7 8 9 10 11 11 12 13 13 14 16 18 19 20 20 20 20 18 17 16 17 18 19 22
10 9 9 8 7 6 6 7 7 8 8 8 8 8 7 7 6 6 5 5 6 6 5 5 5 5 6 6 6 6 6 6 6 7 7 7 7 7 7 8 7 7 6 6 5 4 2 1 2 3 4 4 4 4 4 5 6 7 7 7 8 8 9 10 11 12 12 13 14 15 17 17 18 19 19 19 19 18 16 16 16 16 18 20 22
10 10 9 8 7 6 6 6 6 6 7 7 8 7 7 7 6 5 4 4 5 5 5 5 5 5 5 5 6 6 6 6 6 6 7 7 7 8 8 8 8 8 7 7 6 5 4 3 3 3 3 4 5 6 6 6 7 7 8 9 10 11 11 11 12 13 15 15 16 16 17 18 18 18 17 17 16 16 16 15 16 17 18 20 22
10 10 9 9 8 7 6 6 6 6 6 6 7 7 7 7 6 5 4 3 3 4 4 5 5 5 5 5 5 5 5 5 5 6 6 7 7 7 8 8 9 8 8 8 7 6 6 5 5 5 5 5 6 7 7 7 8 8 8 9 11 12 14 14 15 16 17 17 17 16 16 17 17 15 14 14 14 15 15 15 16 17 19 21 22
11 11 10 10 9 8 8 7 7 7 6 6 6 7 7 7 6 5 5 3 2 2 3 4 4 4 4 5 4 5 5 5 5 5 6 6 7 7 8 9 9 8 8 8 7 8 7 6 7 8 6 7 8 8 9 9 10 10 10 10 12 13 15 16 16 17 17 18 18 18 17 15 14 13 12 12 13 14 15 16 17 18 20 21 22
12 12 11 10 10 9 9 8 8 8 7 7 7 7 7 7 7 6 6 5 4 3 2 2 3 3 4 4 4 5 5 5 5 5 6 6 7 8 8 9 9 9 8 8 9 9 8 7 10 10 8 9 10 9 10 11 12 12 12 13 13 14 15 16 16 16 16 17 19 19 16 13 12 11 11 12 13 14 15 16 17 19 20 21 22
14 13 12 11 11 10 9 9 8 8 8 7 7 8 8 7 7 7 7 7 6 5 4 3 3 2 3 4 4 5 5 5 5 5 6 6 7 7 8 9 9 9 9 9 9 10 9 9 11 11 9 11 11 11 12 13 14 15 15 15 15 14 14 15 15 15 15 16 18 17 14 12 11 11 12 13 14 15 16 18 19 20 21 22 22
15 14 13 12 12 11 10 10 9 9 8 8 8 8 8 8 9 9 8 8 8 7 6 5 5 4 3 4 4 5 5 6 6 6 6 7 7 8 9 9 10 10 10 10 11 11 11 11 12 12 12 13 13 13 13 13 14 15 15 15 15 14 13 14 15 15 14 15 15 15 13 12 12 12 13 14 16 17 19 20 21 22 22 22 21
16 15 14 14 13 13 12 12 11 10 9 9 8 8 9 9 10 10 10 10 9 8 8 7 7 6 5 5 5 5 6 6 7 7 8 8 8 9 9 10 10 10 11 11 11 12 12 12 13 13 13 13 14 14 14 15 15 15 15 15 14 14 13 14 15 15 14 13 13 14 14 14 14 14 15 16 17 19 19 20 21 21 21 20 20
17 16 15 15 14 14 14 13 13 12 11 10 9 9 9 9 9 10 10 11 11 10 10 9 9 8 7 7 6 6 6 7 7 8 9 9 10 10 10 10 10 10 11 11 11 12 12 12 13 13 13 13 14 15 15 15 15 14 14 14 14 14 15 15 15 14 12 10 11 12 13 14 15 16 17 16 17 17 17 18 18 18 18 18 18
18 17 16 16 15 15 15 15 14 13 12 11 10 9 9 9 9 9 10 10 11 11 11 11 11 10 9 8 8 8 7 7 8 8 9 10 10 11 11 11 11 11 11 11 11 11 12 12 13 13 13 13 14 14 14 14 14 14 14 13 13 14 15 15 13 12 11 9 10 11 12 14 15 16 16 15 15 16 16 16 17 17 17 17 17
19 18 17 17 17 17 16 15 14 14 13 12 11 10 10 10 10 9 10 10 11 11 11 12 12 12 11 10 10 9 9 9 8 9 9 10 11 12 12 13 13 13 12 12 12 12 12 12 12 13 13 13 13 14 14 13 13 13 12 12 13 14 14 13 11 11 11 12 12 12 12 12 13 14 14 15 16 17 16 16 17 18 18 17 17
20 19 19 18 18 17 17 16 15 14 13 13 12 11 11 11 11 10 10 10 10 11 11 12 13 13 13 12 12 11 11 10 10 10 10 10 11 12 13 13 14 14 14 14 13 13 13 13 13 13 12 12 13 13 13 12 12 12 12 12 13 13 13 12 11 10 11 12 12 11 10 10 11 13 14 15 16 16 16 16 18 19 20 19 18
19 19 19 19 18 18 17 16 16 15 14 13 13 12 12 11 11 11 11 10 10 10 11 12 12 13 13 14 14 13 13 12 12 11 11 11 11 12 12 13 13 14 15 15 15 15 15 14 14 14 13 13 13 14 13 12 12 12 11 11 12 13 12 12 12 12 11 10 9 9 9 10 11 13 14 15 16 15 16 16 17 19 20 20 19
18 17 17 17 18 18 18 17 17 16 16 15 14 14 13 12 12 12 11 11 11 11 11 11 11 12 13 14 14 14 15 15 14 14 13 13 12 12 12 12 13 13 14 14 15 15 15 15 15 15 14 15 14 14 14 13 12 11 11 12 13 14 14 14 14 13 10 9 9 9 10 10 11 13 14 15 16 15 15 15 17 18 19 20 20
19 17 15 16 17 18 18 18 18 17 17 17 16 15 14 14 13 12 11 11 11 11 11 11 11 11 12 13 14 15 15 16 16 16 16 15 14 14 13 13 13 13 14 14 14 15 15 15 16 15 15 15 15 14 14 13 13 13 13 13 14 16 16 16 15 12 8 8 10 12 12 11 12 12 12 14 16 14 13 14 16 18 19 20 21
22 20 17 16 16 17 18 18 18 17 17 17 17 16 15 14 13 12 11 11 11 11 11 11 11 11 12 12 13 14 15 16 16 17 17 17 17 17 16 15 15 15 15 15 15 15 15 15 15 15 16 16 15 15 15 15 15 14 15 15 16 17 17 16 15 12 9 9 11 14 14 13 12 12 11 12 14 13 12 13 15 17 19 20 21
24 23 20 18 17 16 17 18 17 17 17 18 18 17 16 15 14 13 12 12 11 11 11 11 11 11 11 12 13 14 15 15 16 17 17 18 18 19 19 19 18 18 17 17 16 16 15 16 16 17 17 17 17 17 17 17 17 16 16 16 16 16 16 15 14 13 11 10 11 14 15 14 13 13 12 11 12 13 12 13 15 16 18 20 20
26 26 23 20 19 18 18 17 17 18 19 18 18 18 18 18 17 15 14 14 13 12 12 12 12 12 12 13 13 14 15 16 16 17 17 17 18 19 19 20 21 21 20 20 20 19 18 18 19 19 20 19 19 20 20 19 19 18 17 16 16 15 15 15 14 14 13 12 12 13 15 15 14 13 12 11 12 13 13 13 14 15 17 19 20
29 29 27 23 21 20 20 19 19 19 20 20 19 19 19 20 19 18 17 16 15 14 14 14 14 14 14 13 14 14 15 16 17 17 18 18 18 18 19 20 21 22 22 22 22 22 21 21 21 22 23 22 22 23 22 21 20 19 18 18 17 16 15 14 15 15 15 15 13 13 15 16 15 13 12 11 11 13 14 14 15 16 17 18 19
31 32 31 27 24 23 23 23 22 21 20 21 21 21 21 22 22 21 19 18 17 16 16 16 16 16 16 15 15 15 16 17 18 19 19 20 20 19 19 19 21 21 21 22 23 23 22 22 22 23 24 24 23 23 23 22 21 21 20 19 18 17 16 15 16 17 17 17 16 14 14 17 17 15 13 13 12 13 15 15 16 17 17 18 18
33 34 33 31 27 25 24 23 23 22 21 22 23 23 24 24 23 22 22 21 19 18 17 18 18 18 18 18 17 17 17 18 19 20 21 22 22 21 21 21 21 22 21 22 23 23 22 22 22 23 24 24 23 23 24 23 22 22 20 19 19 19 17 16 17 18 18 18 19 17 15 17 19 18 16 16 14 15 16 17 17 18 19 19 19
32 34 35 34 31 28 26 24 22 22 22 23 24 25 25 26 25 24 24 23 21 20 19 19 20 20 21 21 21 20 20 20 21 22 23 23 23 23 23 23 23 23 22 23 23 23 23 23 22 22 23 23 23 22 22 22 22 22 20 19 21 22 19 18 19 19 19 20 23 22 17 17 21 21 20 19 18 17 19 19 19 20 20 20 20
30 31 34 34 32 31 29 28 25 22 22 23 25 26 27 28 27 27 26 25 23 22 21 20 21 22 23 23 24 24 23 23 23 24 25 25 24 24 24 25 25 24 23 24 25 25 25 24 22 22 22 22 22 21 21 22 22 23 22 21 25 26 23 21 22 21 20 21 26 27 21 19 22 24 23 23 22 22 22 21 22 22 21 21 20
29 29 30 31 32 31 31 31 29 25 23 24 27 28 29 30 29 28 28 27 25 24 23 23 22 23 24 25 25 26 26 27 27 26 26 27 26 25 26 26 26 24 24 26 28 28 27 26 23 22 21 22 22 22 22 23 24 25 25 25 27 29 26 24 24 24 21 22 28 30 24 21 23 25 26 25 24 24 25 24 24 24 23 23 22
Wind_Direction
104 102 101 99 98 98 97 98 97 94 92 91 92 88 86 88 95 105 110 115 118 120 123 125 129 133 133 133 132 133 134 133 133 134 132 129 127 123 119 117 116 116 115 113 111 107 104 101 98 94 89 82 77 74 71 67 64 61 58 56 56 57 58 59 60 62 64 65 66 65 65 65 64 63 62 60 59 59 58 58 57 55 54 52 51
105 105 105 103 102 102 99 97 96 94 92 90 88 85 86 90 98 107 112 115 116 117 119 121 128 134 135 135 134 134 133 133 134 134 131 129 126 123 120 118 118 117 116 113 110 107 104 100 96 92 86 81 77 73 70 67 64 61 59 60 61 62 62 64 66 68 69 69 68 67 66 65 64 62 61 60 59 58 57 56 55 53 51 49 48
107 108 109 108 106 105 102 100 100 99 95 92 90 90 92 96 99 102 104 106 110 114 117 122 129 134 135 135 133 132 132 133 133 132 130 128 125 123 121 120 119 118 116 113 110 107 103 100 97 91 85 81 76 73 71 67 64 62 63 64 66 66 68 71 73 73 73 72 70 68 67 65 64 62 61 60 59 58 56 55 53 51 49 47 45
107 109 111 110 107 106 105 102 101 97 93 91 90 90 91 93 94 96 99 102 109 113 114 119 126 127 129 130 130 129 130 131 131 131 128 126 124 123 121 121 120 118 115 113 110 106 103 101 96 91 85 79 76 74 71 67 65 66 68 69 70 72 75 77 77 76 75 73 71 69 67 65 64 62 61 59 58 57 55 53 51 49 47 46 44
109 112 111 109 106 107 106 102 100 96 93 91 90 90 89 90 92 95 100 103 107 109 112 120 125 124 125 127 128 128 129 130 130 129 126 125 124 123 122 121 119 117 115 112 109 106 104 100 94 88 83 79 78 75 71 69 70 72 73 74 76 79 80 79 78 77 75 73 71 69 67 66 64 62 60 58 57 55 53 51 50 48 47 45 44
112 113 110 108 108 108 107 105 103 100 97 92 89 90 89 90 92 96 100 102 104 106 111 119 123 124 125 127 128 128 129 128 127 126 125 124 123 122 121 120 118 116 114 111 108 107 103 97 90 85 82 81 79 75 72 73 75 76 77 79 81 82 82 81 79 78 76 74 72 69 67 65 63 61 59 57 55 53 51 50 48 47 45 44 43
109 110 109 108 108 108 108 106 104 102 99 94 90 89 88 89 92 95 98 99 101 105 110 114 119 123 125 127 128 127 126 124 124 124 123 122 122 121 120 118 116 114 113 110 109 107 100 93 87 84 83 82 78 75 75 78 80 81 82 84 85 85 84 82 80 78 76 74 71 69 67 65 63 61 59 56 54 52 50 48 46 45 43 41 40
105 105 105 106 107 107 108 106 103 102 98 94 92 90 90 91 92 93 96 98 101 107 109 109 113 118 122 126 126 124 123 123 123 122 121 120 120 119 118 116 114 113 112 110 109 104 98 92 88 86 84 82 78 77 79 83 84 85 87 88 88 87 86 84 81 79 76 74 71 68 66 64 62 60 58 56 54 52 49 47 45 42 41 39 37
103 103 104 106 107 106 107 105 102 101 99 97 95 93 93 93 93 94 97 102 105 108 107 105 107 111 116 120 121 121 121 121 121 120 120 120 119 118 117 115 114 113 112 109 105 101 97 95 91 89 86 81 78 80 85 87 88 90 91 91 91 89 87 84 81 78 75 72 69 67 64 62 61 59 57 55 53 50 48 46 43 41 39 36 35
105 106 106 107 107 106 105 104 103 102 100 100 97 96 96 95 93 95 100 104 106 105 104 103 103 105 110 114 117 118 119 119 120 120 119 119 118 117 117 116 115 113 111 106 100 98 98 97 95 92 87 82 81 85 90 91 93 95 95 94 92 90 87 84 81 78 74 71 68 64 62 59 58 56 54 53 51 49 47 45 43 40 38 35 33
107 109 110 110 109 108 106 104 104 103 102 101 99 97 96 96 96 98 101 103 103 101 101 101 103 105 108 112 115 117 118 119 120 119 119 119 118 117 116 114 113 112 108 103 101 101 100 98 96 93 88 85 87 92 94 95 97 99 98 96 94 91 88 85 81 77 73 70 66 63 60 57 55 53 52 50 49 47 46 44 41 39 37 34 32
106 108 110 111 110 109 107 105 103 102 100 98 96 94 92 92 95 97 98 99 98 98 100 101 103 106 109 111 113 115 117 118 119 119 118 118 117 117 115 112 112 110 104 104 106 105 101 99 97 93 89 90 95 99 99 100 101 101 101 99 97 94 90 86 82 77 73 69 66 62 59 56 53 51 49 47 46 45 43 42 39 37 35 32 29
105 105 107 108 108 108 106 105 103 101 99 94 90 89 88 88 89 91 92 94 96 98 100 101 103 106 109 111 112 114 115 115 116 116 115 115 115 116 115 111 110 108 105 108 110 104 100 99 97 94 93 97 103 105 105 105 105 105 104 103 100 96 92 88 83 78 73 68 63 59 56 53 51 49 47 45 43 41 40 39 37 34 32 29 26
106 101 102 103 103 104 104 103 102 100 97 92 88 85 85 85 86 88 90 91 95 98 101 103 104 106 108 110 112 113 113 112 112 113 114 113 112 114 115 110 107 108 110 111 108 101 98 98 96 96 101 106 111 111 110 110 109 109 108 106 104 100 96 91 85 78 71 65 60 56 53 51 49 47 45 44 41 39 37 35 32 30 26 24 22
107 102 99 99 99 100 101 101 101 98 95 92 90 86 84 84 86 88 90 93 95 97 100 104 107 108 109 109 109 111 113 111 111 114 114 111 110 112 113 110 109 112 113 109 103 98 95 94 97 103 110 113 116 116 114 113 112 112 112 110 108 104 100 94 87 79 71 64 58 53 50 48 47 45 43 40 38 36 34 32 29 25 22 20 19
110 106 102 100 98 98 98 99 98 97 95 92 91 89 87 88 88 89 92 95 98 100 102 105 107 110 111 110 110 112 110 107 112 119 114 108 111 113 112 113 115 116 113 108 104 98 90 92 103 113 117 118 120 119 116 115 114 113 113 112 110 107 102 95 86 78 69 61 55 51 47 45 44 43 41 38 35 32 30 28 26 23 21 19 18
114 112 108 103 101 99 99 98 97 96 95 93 92 92 92 92 93 94 96 97 100 102 104 106 109 111 111 112 116 116 110 106 114 122 110 104 109 111 112 116 119 118 114 109 108 103 93 95 110 119 120 122 123 120 117 117 114 112 110 109 108 104 100 92 81 69 59 51 46 44 42 41 40 40 40 38 35 31 28 25 23 22 20 18 18
115 115 113 109 105 103 101 99 98 98 97 96 94 94 94 94 95 98 100 101 103 106 107 108 111 113 113 113 117 117 114 115 122 119 106 101 103 109 115 121 123 119 115 113 113 111 107 106 115 121 123 125 124 119 118 118 114 108 105 102 99 95 90 82 71 56 44 37 35 36 37 37 36 35 36 35 32 29 26 23 21 19 18 17 16
111 115 115 114 112 109 105 103 101 100 100 100 99 98 97 96 96 98 101 103 105 109 112 112 114 117 117 117 118 117 116 120 125 116 102 93 93 101 113 123 126 122 119 119 117 114 117 120 123 125 128 128 125 122 122 121 115 104 98 95 90 84 78 72 60 43 31 24 24 28 31 31 30 28 29 29 27 24 22 20 19 17 16 14 13
106 111 115 118 119 118 114 110 108 106 105 104 103 103 102 100 99 98 101 105 107 110 113 115 117 118 119 119 121 122 120 119 119 113 100 88 88 97 111 123 126 120 118 120 118 116 123 128 130 133 134 130 129 130 126 123 118 107 98 92 84 76 67 57 45 32 19 12 14 20 22 22 22 21 21 22 21 19 16 15 15 14 13 11 9
107 109 113 118 122 124 122 119 116 113 111 110 109 108 108 106 106 105 105 108 112 114 113 114 114 117 119 120 122 124 123 121 115 104 97 95 97 108 125 132 128 122 119 118 118 122 131 134 134 139 139 135 136 136 130 126 120 110 99 87 75 67 55 29 14 10 4 1 4 9 11 11 12 12 13 14 14 12 10 9 9 9 9 8 7
112 113 114 117 121 124 126 126 123 121 119 118 117 117 116 115 114 115 114 113 113 114 112 108 107 110 114 116 121 122 120 119 114 102 98 100 102 110 131 141 135 134 132 126 124 129 136 138 139 143 144 143 144 141 137 135 123 106 89 71 56 39 20 357 350 351 351 351 354 357 359 0 2 4 5 5 5 5 5 4 3 3 4 4 4
119 119 120 120 121 123 124 124 125 126 125 124 124 123 123 124 123 122 121 117 116 113 109 106 103 102 102 108 118 122 120 117 112 108 102 106 114 116 128 146 139 135 138 133 131 134 139 143 147 152 152 151 152 151 150 148 137 110 60 28 14 7 358 350 346 345 345 345 346 347 350 352 355 356 357 357 357 358 359 358 358 358 358 360 1
126 126 127 126 125 125 124 124 126 127 125 124 124 124 124 125 125 124 123 122 122 119 112 109 107 104 105 111 119 123 122 114 110 110 102 105 126 131 138 149 137 126 136 134 131 134 140 146 154 161 161 159 163 166 168 170 171 179 310 328 336 344 346 347 345 342 342 341 340 340 343 346 349 350 351 351 351 352 353 353 353 354 355 357 360
135 134 134 132 130 129 128 129 130 128 126 127 125 124 124 123 123 122 122 124 126 123 119 118 118 116 113 114 122 125 121 114 112 115 114 113 123 135 143 149 147 141 142 134 133 137 141 149 160 170 173 172 175 183 194 202 211 247 283 305 319 329 337 341 341 340 339 336 334 335 337 341 343 344 345 346 347 347 347 348 350 352 356 1 6
147 143 141 139 136 135 134 134 133 131 132 133 130 127 126 125 125 124 124 125 129 130 129 130 132 130 127 125 131 131 123 119 116 116 117 119 125 139 148 152 153 156 157 146 133 132 140 152 165 178 188 194 198 207 225 239 250 269 288 302 311 321 330 334 336 339 338 334 332 332 335 337 339 340 342 343 344 344 345 347 351 358 6 12 15
158 155 153 149 145 144 143 140 138 137 138 136 133 131 131 131 130 129 128 127 129 134 137 142 146 145 142 141 143 140 130 130 132 129 129 130 132 142 153 158 153 151 159 158 145 140 141 146 165 185 202 217 229 239 255 270 278 283 289 297 307 317 325 329 333 335 336 334 332 331 332 333 335 337 339 341 343 346 349 354 2 10 16 18 18
166 164 165 162 159 160 157 150 148 148 144 140 137 135 134 134 135 136 134 131 130 134 139 145 152 156 155 152 152 153 146 142 145 144 143 143 140 145 158 164 161 160 165 168 170 177 168 142 169 200 217 232 245 255 265 278 288 295 299 305 312 319 324 329 330 330 330 329 327 326 328 331 334 336 339 344 349 355 2 8 13 16 15 16 16
172 171 170 169 170 173 172 168 167 162 155 150 147 143 139 138 140 141 138 137 134 135 138 140 147 156 159 159 161 162 156 151 156 153 149 148 150 158 165 169 175 177 176 180 184 183 180 187 208 222 231 242 253 260 265 272 283 293 301 309 316 321 324 327 327 326 324 322 321 322 324 328 334 338 344 352 0 6 12 14 13 11 9 9 10
180 178 176 175 176 179 182 185 186 181 174 169 161 155 152 150 150 150 147 148 145 141 141 137 142 150 156 161 166 168 165 164 170 167 159 158 163 171 172 175 187 191 186 187 189 191 193 201 223 233 233 241 251 259 265 269 277 285 293 301 308 313 316 319 321 321 320 320 322 325 326 329 335 344 353 0 5 8 9 9 6 4 3 2 3
189 187 185 183 181 182 187 192 196 197 195 192 182 173 170 167 166 167 165 166 171 164 153 143 141 145 151 160 166 173 176 177 180 177 171 170 174 180 182 187 196 199 197 194 196 207 204 200 228 241 239 243 250 257 267 273 277 281 287 292 296 302 306 311 314 316 318 321 324 329 335 336 340 349 356 358 360 0 0 0 359 358 357 356 356
199 196 194 193 192 190 192 196 201 205 205 203 197 194 193 188 184 186 184 183 190 200 195 175 158 149 153 163 170 177 184 186 187 185 183 184 185 188 192 199 206 207 206 202 205 219 214 200 225 242 244 249 257 260 266 272 278 282 285 288 292 297 301 305 309 313 318 323 326 333 342 346 346 348 349 350 350 350 350 351 351 351 350 350 349
207 205 202 201 203 204 203 203 206 209 210 207 204 204 207 207 204 204 203 198 198 205 214 218 207 184 172 176 180 186 190 193 197 197 195 195 196 197 200 206 211 213 214 212 214 226 224 212 227 242 244 249 258 260 260 265 272 278 284 288 292 296 301 304 306 311 318 323 327 334 343 347 345 341 339 339 339 340 341 341 342 342 342 341 342
212 213 212 209 209 212 214 215 215 215 214 211 207 207 210 213 214 215 217 214 211 211 214 221 228 226 215 205 200 200 201 201 204 210 211 208 205 206 208 211 214 217 220 218 219 226 229 225 230 239 242 246 254 259 261 264 268 274 281 286 291 297 302 303 304 311 318 321 323 328 333 338 340 336 332 331 331 333 334 334 334 336 336 336 337
218 218 218 217 216 216 219 222 223 220 219 217 213 211 211 213 214 216 219 221 220 219 219 223 230 232 229 226 220 216 214 213 213 215 218 219 218 216 216 218 219 222 225 226 226 229 232 234 236 240 244 248 254 259 263 267 271 276 280 286 293 299 301 300 303 311 317 317 318 320 326 333 336 332 328 327 327 329 331 332 333 335 336 336 335
222 222 222 222 221 221 222 223 225 223 221 220 217 215 213 214 214 214 216 218 220 220 221 225 230 233 233 231 229 228 225 224 224 224 225 226 226 226 226 226 226 226 228 231 234 237 240 242 245 247 249 251 256 260 264 268 274 279 284 290 297 300 300 303 308 314 316 314 314 317 323 329 328 327 328 329 331 332 335 336 336 337 338 337 335
220 221 224 225 225 226 226 225 226 226 223 220 217 215 213 215 217 216 215 216 217 219 221 224 228 231 233 233 233 233 232 232 233 235 236 235 234 233 233 233 233 233 234 236 238 241 244 247 250 252 253 255 258 262 266 271 276 281 286 292 295 296 298 304 312 316 316 318 320 321 322 320 318 320 325 331 333 336 341 342 340 340 341 339 337
219 219 221 224 226 228 228 227 227 226 225 222 219 217 216 217 219 219 219 218 218 219 220 223 226 228 229 231 232 234 235 236 238 240 243 243 244 243 242 241 240 240 240 241 242 244 247 251 254 255 258 261 263 266 270 273 277 280 285 289 289 289 292 299 307 308 311 319 325 326 324 320 320 322 325 330 332 338 348 350 346 347 348 344 340
220 220 220 222 226 228 229 228 226 225 225 223 222 222 222 222 222 221 222 222 220 220 220 221 224 226 228 228 229 232 234 237 240 243 246 248 250 251 251 250 249 248 247 247 247 248 250 253 256 258 261 263 265 269 272 273 275 279 284 285 284 284 287 294 300 303 311 322 326 326 325 326 326 325 326 328 331 340 352 354 352 352 351 348 344
228 227 226 224 225 228 230 229 227 224 223 224 224 226 228 228 227 225 225 225 224 223 222 222 224 225 227 228 229 230 232 235 239 242 246 248 251 253 255 255 255 255 255 254 253 253 254 256 258 260 262 265 266 268 271 272 274 278 279 278 278 281 286 290 297 308 319 326 324 320 322 325 324 324 325 325 328 342 353 354 354 353 352 351 349
239 238 240 239 235 232 231 231 230 226 224 224 224 226 227 229 231 231 230 230 230 230 227 225 227 227 228 229 231 232 233 234 236 238 242 244 247 251 254 256 258 258 258 258 257 257 258 259 261 262 263 265 266 267 269 270 271 271 271 272 275 280 284 288 296 306 316 320 314 310 314 319 319 321 323 320 325 341 351 351 352 352 352 353 352
241 236 238 247 250 247 240 234 232 231 229 228 228 227 228 229 232 235 236 236 237 238 237 234 232 231 230 231 232 234 235 237 238 239 240 242 244 247 250 251 254 255 256 257 256 256 257 258 259 260 260 261 262 262 265 266 266 264 265 268 273 277 281 287 293 300 306 308 305 303 309 315 315 316 319 316 320 334 347 350 351 350 350 352 352
246 238 231 235 245 254 255 248 240 236 236 236 235 234 234 236 238 240 242 245 246 247 249 248 246 242 239 237 236 236 238 239 240 242 243 243 244 244 245 246 248 249 251 252 252 252 252 254 254 255 255 255 256 257 260 262 262 262 263 265 270 274 279 285 290 292 292 296 297 299 307 316 318 318 319 314 315 324 338 346 350 349 349 349 350
245 242 235 230 232 243 255 259 256 248 242 242 243 242 240 239 242 245 246 248 251 253 256 258 259 258 254 250 245 242 242 242 242 244 244 245 246 245 245 246 246 247 247 248 250 249 249 251 251 251 252 253 254 255 257 259 260 262 264 265 267 270 273 276 279 281 284 289 293 296 303 313 318 320 321 316 312 317 327 338 346 348 346 346 347
241 241 238 233 232 236 240 248 256 255 249 245 246 248 246 242 240 242 244 246 248 251 254 256 259 262 262 261 258 254 251 249 247 247 246 246 246 246 246 246 246 247 247 247 248 249 249 250 252 253 252 253 255 257 257 259 261 262 263 264 263 263 263 264 267 272 278 282 285 290 296 304 312 316 316 313 309 311 318 328 337 342 343 343 343
242 241 239 233 230 235 237 239 244 249 251 251 248 248 250 248 245 241 240 242 243 246 249 251 254 257 259 260 262 263 262 261 258 256 253 250 248 247 247 247 247 247 247 247 248 248 249 250 252 254 254 254 256 258 259 259 260 261 262 263 262 260 258 258 262 267 272 276 280 287 292 296 303 306 305 302 301 303 309 318 326 332 336 338 340
243 242 242 237 231 231 236 238 240 244 250 254 254 252 252 252 252 251 248 245 244 245 248 250 252 254 256 257 259 261 263 265 265 265 263 261 257 253 251 250 249 248 247 247 248 248 248 249 250 253 255 255 256 258 260 260 259 260 260 261 262 259 255 257 262 266 271 275 277 279 285 290 293 296 297 295 294 295 300 308 315 320 325 330 334
243 242 243 242 239 237 238 240 244 247 250 253 254 255 254 253 253 253 253 252 251 251 253 255 255 256 256 256 257 258 259 262 263 264 265 265 265 263 259 255 254 253 250 249 249 249 248 248 248 250 253 255 256 257 259 260 260 259 259 258 258 255 252 255 262 266 270 275 276 274 276 283 287 289 292 293 292 292 294 298 304 309 315 320 325
242 241 241 241 240 240 240 241 244 247 249 251 252 254 255 255 254 254 253 253 253 253 254 257 259 261 261 260 259 258 258 259 260 262 263 263 265 266 266 263 260 258 256 255 255 253 250 248 247 248 250 253 254 255 256 257 258 257 257 257 258 256 252 253 259 264 270 276 278 275 273 279 284 287 289 290 291 290 291 294 298 302 306 311 316
241 241 241 239 239 239 237 237 238 239 242 247 249 250 251 252 254 255 256 256 255 254 254 255 256 259 262 264 265 264 262 261 261 262 263 263 263 264 266 267 267 266 264 262 262 260 257 254 251 249 249 250 251 252 253 254 256 256 255 255 258 258 256 254 257 261 268 275 277 277 277 279 281 285 287 288 291 292 292 294 297 299 302 306 310
243 242 240 240 241 239 236 236 236 234 236 243 248 250 250 250 250 252 253 255 256 256 255 255 255 256 258 262 265 267 268 268 267 267 268 269 270 268 267 267 268 268 265 265 266 266 265 264 261 255 251 249 250 250 251 253 255 256 255 254 256 258 258 256 257 258 261 269 274 276 279 281 281 283 286 287 289 291 292 294 296 298 300 303 306
Height
5934 5933 5933 5933 5934 5934 5935 5935 5935 5935 5935 5935 5935 5935 5936 5936 5936 5937 5937 5938 5939 5940 5941 5943 5943 5944 5945 5945 5946 5947 5949 5950 5951 5952 5953 5954 5955 5956 5957 5957 5958 5959 5959 5960 5960 5961 5962 5962 5963 5963 5963 5963 5963 5963 5963 5963 5963 5963 5962 5962 5962 5961 5961 5960 5960 5959 5958 5958 5957 5956 5955 5955 5954 5953 5952 5951 5950 5949 5948 5947 5945 5944 5943 5942 5941
5935 5934 5934 5935 5935 5936 5936 5937 5937 5937 5937 5937 5936 5937 5937 5937 5937 5938 5939 5940 5941 5941 5942 5943 5945 5946 5946 5947 5947 5948 5949 5950 5952 5953 5954 5955 5956 5957 5958 5959 5959 5960 5961 5961 5962 5962 5963 5964 5964 5964 5965 5965 5965 5964 5964 5964 5964 5964 5964 5964 5963 5963 5962 5962 5961 5960 5960 5959 5959 5958 5957 5956 5955 5954 5953 5952 5951 5950 5949 5948 5947 5946 5945 5944 5943
5936 5936 5936 5937 5937 5937 5938 5938 5939 5939 5939 5939 5939 5939 5939 5939 5939 5940 5940 5941 5942 5943 5943 5945 5946 5947 5948 5948 5949 5949 5950 5951 5953 5954 5955 5956 5957 5958 5959 5959 5960 5961 5962 5963 5963 5964 5964 5965 5965 5966 5966 5966 5966 5966 5966 5966 5966 5966 5965 5965 5965 5964 5964 5963 5963 5962 5961 5961 5960 5959 5958 5958 5957 5956 5955 5954 5953 5952 5951 5949 5948 5947 5946 5945 5944
5937 5938 5938 5938 5939 5939 5939 5940 5940 5941 5941 5941 5941 5941 5941 5941 5941 5942 5942 5943 5944 5945 5945 5946 5947 5948 5949 5950 5950 5951 5952 5953 5954 5955 5956 5957 5958 5959 5960 5961 5961 5962 5963 5964 5965 5965 5966 5966 5966 5967 5967 5967 5967 5967 5967 5967 5967 5967 5967 5966 5966 5966 5965 5965 5964 5964 5963 5962 5962 5961 5960 5959 5958 5957 5956 5955 5954 5953 5952 5951 5950 5949 5948 5947 5945
5939 5939 5940 5940 5940 5940 5941 5941 5942 5942 5943 5943 5943 5943 5943 5943 5944 5944 5945 5946 5947 5947 5947 5949 5949 5949 5950 5951 5952 5952 5953 5954 5955 5956 5957 5958 5959 5960 5961 5962 5963 5964 5965 5965 5966 5967 5967 5968 5968 5968 5969 5969 5969 5969 5969 5969 5968 5968 5968 5968 5967 5967 5967 5966 5966 5965 5964 5964 5963 5962 5961 5961 5960 5959 5958 5957 5956 5955 5954 5953 5951 5950 5949 5948 5947
5940 5941 5941 5942 5942 5942 5943 5943 5944 5945 5945 5945 5945 5945 5945 5946 5947 5948 5949 5949 5949 5949 5950 5951 5951 5951 5951 5952 5953 5954 5954 5955 5956 5958 5959 5960 5961 5962 5963 5964 5965 5966 5967 5967 5968 5968 5969 5969 5970 5970 5970 5970 5970 5970 5970 5970 5970 5970 5969 5969 5969 5968 5968 5968 5967 5967 5966 5965 5965 5964 5963 5962 5962 5961 5960 5959 5958 5957 5955 5954 5953 5952 5951 5950 5949
5942 5943 5943 5944 5944 5944 5945 5946 5946 5947 5947 5947 5947 5948 5948 5949 5950 5951 5951 5950 5950 5951 5953 5953 5952 5952 5952 5953 5955 5955 5956 5957 5958 5960 5960 5961 5962 5964 5965 5966 5967 5968 5968 5969 5969 5970 5970 5971 5971 5972 5972 5972 5972 5971 5971 5971 5971 5971 5971 5970 5970 5970 5970 5969 5969 5969 5968 5967 5966 5966 5965 5964 5963 5962 5961 5960 5959 5958 5957 5956 5955 5954 5953 5951 5950
5944 5944 5945 5945 5946 5946 5948 5948 5948 5949 5949 5949 5950 5950 5950 5951 5952 5953 5953 5953 5953 5955 5956 5955 5954 5954 5954 5955 5956 5957 5958 5959 5960 5961 5962 5963 5964 5966 5967 5968 5969 5970 5970 5971 5971 5972 5972 5973 5973 5973 5973 5973 5973 5973 5973 5973 5973 5972 5972 5972 5972 5972 5972 5971 5971 5970 5970 5969 5968 5968 5967 5966 5965 5964 5963 5962 5961 5960 5959 5958 5956 5955 5954 5953 5951
5945 5945 5946 5946 5948 5949 5950 5950 5951 5951 5951 5952 5953 5953 5953 5954 5954 5955 5955 5956 5957 5958 5958 5957 5956 5956 5956 5957 5957 5959 5960 5961 5962 5963 5964 5965 5967 5968 5969 5970 5970 5971 5972 5973 5973 5973 5973 5974 5974 5974 5975 5975 5975 5975 5974 5974 5974 5974 5974 5974 5974 5974 5973 5973 5973 5972 5972 5971 5970 5970 5969 5968 5967 5966 5965 5964 5963 5962 5961 5959 5958 5957 5955 5954 5952
5948 5948 5948 5948 5950 5951 5951 5952 5953 5953 5954 5954 5955 5955 5955 5956 5957 5957 5958 5959 5960 5960 5960 5958 5958 5959 5959 5959 5960 5961 5962 5963 5964 5965 5967 5968 5968 5969 5970 5971 5972 5973 5974 5974 5975 5975 5975 5975 5975 5976 5976 5976 5976 5976 5976 5976 5976 5976 5976 5976 5976 5975 5975 5975 5975 5974 5974 5973 5972 5972 5971 5970 5969 5968 5967 5966 5965 5964 5962 5961 5960 5958 5957 5955 5954
5951 5951 5951 5951 5952 5952 5953 5954 5954 5955 5955 5956 5957 5958 5958 5958 5959 5960 5960 5961 5961 5961 5961 5960 5960 5961 5961 5962 5962 5963 5964 5965 5967 5967 5968 5970 5970 5971 5972 5973 5974 5975 5975 5976 5977 5977 5976 5976 5976 5977 5977 5977 5978 5978 5978 5978 5978 5977 5977 5977 5977 5977 5977 5977 5976 5976 5975 5975 5974 5973 5973 5972 5971 5970 5969 5968 5966 5965 5964 5963 5961 5960 5958 5957 5955
5953 5953 5953 5953 5954 5954 5955 5955 5956 5957 5957 5958 5959 5959 5960 5960 5960 5961 5962 5962 5961 5961 5962 5962 5962 5963 5964 5964 5965 5966 5967 5967 5969 5970 5970 5971 5972 5973 5974 5975 5975 5976 5976 5977 5978 5978 5978 5977 5978 5978 5979 5979 5979 5979 5979 5979 5979 5979 5979 5979 5979 5979 5979 5978 5978 5977 5977 5976 5976 5975 5974 5973 5972 5971 5970 5969 5968 5967 5965 5964 5963 5961 5959 5958 5956
5953 5954 5955 5955 5956 5956 5957 5957 5957 5958 5959 5959 5960 5960 5960 5961 5961 5962 5962 5962 5962 5962 5963 5964 5965 5965 5966 5967 5967 5968 5969 5970 5971 5972 5972 5973 5973 5975 5976 5976 5977 5977 5977 5978 5979 5980 5979 5978 5979 5979 5980 5980 5981 5981 5981 5981 5981 5980 5980 5981 5981 5980 5980 5980 5979 5979 5978 5978 5977 5976 5975 5975 5974 5973 5971 5970 5969 5968 5967 5965 5964 5962 5961 5959 5957
5954 5955 5956 5956 5957 5957 5958 5958 5959 5960 5960 5960 5960 5961 5961 5961 5962 5962 5963 5963 5963 5964 5965 5966 5967 5968 5968 5969 5970 5970 5971 5972 5973 5974 5974 5975 5975 5976 5977 5978 5978 5979 5979 5979 5981 5981 5980 5980 5980 5981 5981 5982 5982 5982 5982 5982 5982 5982 5982 5982 5982 5982 5981 5981 5981 5980 5980 5979 5978 5978 5977 5976 5975 5974 5973 5971 5970 5969 5967 5966 5965 5963 5962 5960 5958
5954 5955 5956 5957 5958 5958 5959 5959 5960 5961 5961 5961 5962 5962 5963 5963 5963 5964 5964 5965 5965 5966 5967 5968 5969 5970 5970 5971 5972 5973 5973 5974 5975 5976 5976 5976 5976 5978 5979 5979 5979 5980 5980 5981 5981 5982 5981 5981 5981 5982 5983 5983 5983 5984 5984 5984 5984 5983 5983 5983 5983 5983 5983 5982 5982 5981 5981 5980 5980 5979 5978 5977 5976 5975 5973 5972 5971 5970 5968 5967 5965 5964 5962 5961 5959
5956 5956 5957 5958 5959 5959 5960 5960 5961 5962 5962 5963 5963 5964 5965 5965 5965 5966 5966 5967 5967 5968 5969 5970 5971 5971 5972 5973 5974 5975 5975 5975 5976 5978 5978 5977 5977 5979 5980 5980 5980 5981 5981 5981 5982 5982 5983 5982 5983 5983 5984 5984 5985 5985 5985 5985 5985 5985 5985 5985 5984 5984 5984 5983 5983 5983 5982 5982 5981 5980 5979 5978 5977 5975 5974 5973 5972 5971 5969 5968 5966 5965 5963 5961 5959
5957 5958 5958 5959 5960 5961 5961 5962 5963 5963 5964 5964 5965 5966 5967 5967 5967 5967 5968 5969 5969 5970 5971 5972 5973 5974 5974 5974 5975 5976 5977 5977 5978 5979 5979 5978 5979 5979 5980 5981 5981 5981 5982 5982 5983 5983 5984 5984 5984 5984 5985 5985 5986 5986 5986 5986 5986 5986 5986 5986 5986 5985 5985 5985 5984 5984 5984 5983 5982 5981 5980 5979 5978 5976 5975 5974 5972 5971 5970 5968 5967 5965 5964 5962 5960
5958 5959 5960 5961 5961 5962 5963 5964 5964 5965 5965 5966 5967 5967 5968 5969 5969 5969 5970 5970 5971 5972 5973 5973 5974 5975 5976 5976 5977 5977 5978 5978 5980 5980 5980 5980 5980 5980 5980 5981 5982 5982 5983 5983 5984 5984 5984 5985 5986 5986 5986 5986 5987 5987 5987 5987 5987 5987 5987 5987 5987 5986 5986 5986 5986 5985 5985 5984 5983 5982 5981 5980 5979 5977 5976 5974 5973 5972 5970 5969 5967 5966 5964 5962 5960
5960 5960 5961 5962 5963 5963 5964 5965 5966 5967 5967 5968 5968 5969 5970 5970 5971 5971 5972 5972 5973 5973 5974 5975 5975 5976 5977 5978 5978 5979 5979 5979 5981 5981 5981 5981 5981 5981 5981 5982 5982 5983 5983 5984 5985 5985 5985 5986 5987 5987 5987 5987 5987 5988 5988 5988 5988 5988 5988 5988 5988 5987 5987 5987 5987 5986 5986 5985 5984 5983 5982 5981 5980 5978 5977 5975 5974 5972 5971 5969 5968 5966 5964 5962 5960
5961 5962 5962 5963 5964 5965 5965 5966 5967 5968 5969 5969 5970 5971 5971 5972 5972 5973 5973 5974 5974 5975 5975 5976 5976 5977 5978 5978 5979 5980 5980 5981 5981 5981 5982 5982 5982 5982 5982 5983 5983 5984 5984 5985 5985 5986 5986 5986 5987 5988 5988 5988 5988 5989 5989 5989 5989 5989 5989 5988 5988 5988 5988 5988 5987 5987 5986 5986 5985 5984 5983 5981 5980 5979 5978 5976 5975 5973 5971 5970 5968 5966 5964 5962 5960
5962 5963 5964 5964 5965 5966 5966 5967 5968 5969 5970 5971 5971 5972 5972 5973 5974 5974 5975 5975 5976 5976 5977 5977 5978 5978 5979 5980 5980 5980 5981 5981 5982 5982 5983 5983 5983 5983 5984 5984 5984 5985 5985 5986 5986 5986 5987 5987 5987 5988 5989 5989 5989 5990 5990 5990 5990 5989 5989 5989 5989 5989 5989 5988 5988 5987 5987 5986 5985 5984 5983 5982 5981 5980 5978 5977 5975 5973 5972 5970 5968 5966 5964 5962 5961
5964 5964 5965 5966 5966 5967 5967 5968 5969 5970 5971 5971 5972 5973 5973 5974 5975 5975 5976 5976 5977 5977 5978 5978 5979 5979 5980 5981 5981 5981 5982 5982 5982 5983 5983 5984 5984 5985 5985 5985 5985 5985 5986 5986 5987 5987 5988 5988 5988 5989 5989 5990 5990 5990 5990 5991 5990 5990 5990 5990 5989 5989 5989 5989 5988 5988 5987 5986 5986 5985 5984 5983 5982 5980 5979 5977 5975 5974 5972 5970 5968 5966 5965 5963 5961
5965 5965 5966 5967 5967 5968 5968 5969 5969 5970 5971 5972 5973 5974 5974 5975 5975 5976 5976 5977 5978 5978 5978 5979 5980 5980 5981 5981 5982 5982 5982 5982 5983 5983 5984 5984 5984 5985 5986 5987 5987 5986 5987 5987 5987 5988 5988 5988 5989 5989 5990 5990 5990 5991 5991 5991 5991 5991 5991 5990 5990 5990 5989 5989 5988 5988 5987 5987 5986 5985 5984 5983 5982 5981 5979 5977 5975 5974 5972 5970 5968 5966 5965 5963 5961
5966 5966 5967 5967 5968 5969 5969 5970 5970 5971 5972 5973 5974 5974 5975 5975 5976 5976 5977 5978 5978 5979 5979 5980 5980 5981 5981 5982 5982 5983 5983 5983 5983 5984 5984 5985 5985 5985 5986 5987 5988 5988 5988 5988 5988 5988 5989 5989 5989 5990 5990 5990 5991 5991 5991 5991 5991 5991 5991 5991 5991 5990 5990 5989 5989 5988 5988 5987 5986 5986 5985 5983 5982 5980 5979 5977 5975 5974 5972 5970 5968 5966 5964 5963 5961
5966 5967 5968 5968 5969 5969 5970 5970 5971 5972 5972 5973 5974 5975 5975 5976 5976 5977 5977 5978 5978 5979 5980 5980 5980 5981 5982 5982 5983 5983 5983 5984 5984 5984 5985 5985 5986 5986 5986 5987 5988 5989 5989 5989 5989 5989 5989 5989 5990 5990 5990 5991 5991 5991 5991 5991 5991 5991 5991 5991 5991 5990 5990 5989 5989 5989 5988 5987 5987 5986 5985 5983 5982 5980 5979 5977 5975 5974 5972 5970 5968 5966 5964 5963 5961
5966 5967 5968 5969 5969 5970 5970 5971 5971 5972 5973 5974 5974 5975 5975 5976 5977 5977 5978 5978 5979 5979 5980 5980 5981 5981 5982 5982 5983 5983 5984 5984 5985 5985 5985 5985 5986 5986 5987 5987 5988 5988 5989 5990 5990 5990 5990 5990 5990 5991 5991 5991 5991 5991 5992 5992 5991 5991 5991 5991 5991 5991 5990 5990 5989 5989 5988 5988 5987 5986 5985 5983 5982 5980 5978 5977 5975 5973 5971 5969 5967 5966 5964 5963 5961
5965 5966 5968 5969 5970 5970 5971 5971 5972 5972 5973 5973 5974 5975 5975 5976 5977 5977 5978 5978 5979 5979 5980 5980 5981 5981 5982 5982 5983 5983 5984 5984 5985 5985 5986 5986 5986 5986 5987 5987 5988 5988 5989 5990 5990 5990 5990 5990 5991 5991 5991 5991 5991 5991 5991 5991 5991 5991 5991 5991 5991 5990 5990 5989 5989 5988 5988 5987 5986 5985 5984 5983 5981 5980 5978 5976 5974 5972 5971 5969 5967 5966 5964 5963 5961
5965 5966 5967 5968 5969 5970 5971 5972 5972 5972 5973 5973 5974 5974 5975 5976 5976 5977 5977 5978 5978 5979 5980 5980 5981 5981 5982 5982 5983 5983 5984 5984 5984 5985 5985 5986 5986 5986 5987 5987 5988 5988 5988 5989 5989 5990 5990 5990 5991 5991 5991 5991 5991 5991 5991 5991 5991 5990 5990 5990 5990 5989 5989 5989 5988 5988 5987 5987 5986 5985 5983 5982 5981 5979 5977 5975 5974 5972 5970 5969 5967 5966 5964 5963 5961
5964 5965 5966 5967 5968 5970 5971 5971 5972 5973 5973 5973 5974 5974 5975 5975 5976 5977 5977 5978 5978 5979 5979 5980 5980 5981 5981 5982 5982 5983 5983 5984 5984 5984 5985 5985 5986 5986 5986 5987 5987 5987 5988 5988 5989 5989 5989 5990 5990 5990 5990 5991 5991 5990 5990 5990 5990 5990 5989 5989 5989 5988 5988 5988 5987 5987 5986 5986 5985 5984 5982 5981 5980 5978 5977 5975 5974 5972 5971 5969 5968 5966 5965 5963 5961
5963 5964 5965 5966 5967 5968 5970 5971 5972 5972 5973 5973 5974 5974 5974 5975 5975 5976 5977 5977 5978 5978 5979 5979 5980 5981 5981 5981 5982 5982 5983 5983 5984 5984 5984 5985 5985 5986 5986 5986 5987 5987 5987 5988 5988 5988 5989 5989 5989 5989 5989 5990 5989 5989 5989 5989 5989 5989 5989 5988 5988 5987 5987 5986 5986 5986 5985 5984 5983 5983 5982 5980 5979 5978 5976 5975 5974 5972 5971 5969 5968 5966 5965 5963 5962
5962 5963 5964 5965 5966 5967 5968 5970 5971 5971 5972 5973 5973 5974 5974 5974 5975 5975 5976 5976 5977 5978 5978 5979 5980 5980 5981 5981 5981 5982 5982 5983 5983 5984 5984 5984 5985 5985 5985 5986 5986 5986 5987 5987 5988 5988 5988 5989 5988 5988 5988 5988 5988 5988 5988 5988 5987 5987 5987 5987 5987 5987 5986 5985 5985 5984 5984 5983 5982 5981 5980 5979 5978 5977 5976 5975 5973 5972 5971 5969 5968 5966 5965 5963 5962
5961 5961 5962 5963 5965 5966 5967 5968 5969 5970 5971 5972 5972 5973 5973 5974 5974 5974 5975 5976 5976 5977 5978 5978 5979 5979 5980 5981 5981 5981 5981 5982 5982 5983 5983 5984 5984 5984 5985 5985 5985 5985 5986 5986 5987 5987 5987 5988 5987 5987 5987 5987 5987 5987 5987 5987 5986 5986 5986 5986 5986 5986 5985 5984 5984 5983 5983 5982 5981 5980 5979 5978 5977 5976 5975 5974 5973 5972 5971 5969 5968 5966 5965 5963 5962
5959 5960 5961 5962 5963 5964 5965 5966 5967 5968 5969 5970 5971 5972 5973 5973 5974 5974 5974 5975 5975 5976 5977 5978 5978 5979 5979 5980 5980 5980 5981 5981 5981 5982 5982 5982 5983 5983 5984 5984 5984 5985 5985 5985 5985 5986 5986 5987 5986 5986 5986 5986 5986 5986 5986 5986 5985 5985 5985 5984 5984 5985 5984 5983 5982 5982 5982 5981 5980 5979 5978 5977 5977 5976 5975 5974 5972 5971 5970 5969 5967 5966 5964 5963 5961
5958 5959 5960 5961 5961 5962 5963 5964 5965 5966 5968 5969 5970 5971 5972 5972 5973 5973 5973 5974 5975 5975 5976 5977 5977 5978 5978 5979 5979 5980 5980 5980 5980 5981 5981 5981 5982 5982 5983 5983 5983 5983 5984 5984 5984 5984 5984 5985 5985 5985 5985 5985 5985 5984 5984 5984 5984 5983 5983 5983 5983 5983 5983 5982 5981 5981 5981 5980 5979 5978 5977 5976 5976 5975 5974 5973 5972 5970 5969 5968 5966 5965 5963 5962 5960
5956 5957 5958 5959 5960 5961 5962 5962 5963 5964 5966 5967 5968 5969 5970 5971 5972 5972 5972 5973 5974 5974 5975 5976 5976 5977 5977 5978 5978 5979 5979 5979 5979 5979 5980 5980 5980 5981 5981 5981 5982 5982 5982 5982 5982 5982 5982 5983 5983 5983 5983 5983 5983 5983 5982 5982 5982 5982 5982 5982 5982 5982 5982 5981 5980 5980 5979 5979 5978 5977 5976 5976 5975 5974 5973 5972 5970 5969 5968 5967 5965 5964 5962 5961 5959
5954 5955 5956 5957 5958 5959 5960 5961 5962 5963 5964 5965 5966 5968 5969 5969 5970 5971 5971 5972 5972 5973 5974 5975 5975 5976 5976 5977 5977 5978 5978 5978 5978 5978 5979 5979 5979 5980 5980 5980 5980 5981 5981 5981 5981 5981 5981 5981 5981 5981 5981 5981 5981 5981 5981 5981 5981 5980 5980 5980 5980 5980 5980 5979 5979 5978 5978 5977 5977 5976 5976 5975 5974 5973 5971 5970 5969 5968 5967 5966 5964 5963 5961 5959 5958
5952 5953 5954 5955 5957 5957 5958 5959 5960 5961 5962 5963 5965 5966 5967 5968 5968 5969 5969 5970 5971 5971 5972 5973 5974 5974 5975 5976 5976 5976 5977 5977 5977 5977 5978 5978 5978 5978 5979 5979 5979 5979 5979 5979 5979 5979 5979 5979 5979 5979 5979 5979 5979 5979 5979 5979 5979 5979 5979 5979 5979 5978 5978 5977 5977 5977 5976 5976 5976 5975 5974 5973 5972 5971 5970 5969 5968 5967 5966 5965 5963 5961 5960 5958 5956
5950 5951 5952 5954 5955 5956 5957 5958 5959 5960 5961 5962 5963 5964 5965 5966 5966 5967 5967 5968 5969 5969 5970 5971 5972 5973 5973 5974 5975 5975 5975 5975 5976 5976 5976 5977 5977 5977 5977 5977 5978 5978 5978 5978 5978 5978 5978 5978 5978 5978 5978 5978 5978 5977 5977 5978 5978 5978 5978 5977 5977 5977 5976 5976 5976 5975 5975 5975 5974 5974 5973 5972 5971 5970 5968 5967 5966 5965 5964 5963 5962 5960 5958 5957 5955
5948 5949 5951 5952 5953 5954 5955 5957 5958 5959 5960 5961 5962 5963 5963 5964 5964 5965 5965 5966 5967 5967 5968 5968 5969 5970 5971 5972 5973 5973 5973 5974 5974 5975 5975 5976 5976 5976 5976 5976 5976 5977 5977 5977 5977 5977 5977 5977 5977 5977 5977 5977 5976 5976 5976 5976 5976 5976 5976 5976 5975 5975 5975 5975 5975 5974 5974 5974 5973 5972 5971 5970 5969 5968 5967 5966 5965 5964 5963 5962 5960 5958 5957 5955 5954
5949 5949 5950 5951 5952 5952 5954 5955 5956 5957 5958 5959 5960 5961 5962 5962 5963 5963 5964 5964 5964 5965 5966 5966 5967 5967 5968 5969 5970 5971 5972 5972 5973 5973 5974 5974 5975 5975 5975 5975 5975 5975 5975 5976 5976 5976 5976 5976 5975 5975 5975 5975 5975 5974 5974 5974 5974 5974 5974 5974 5973 5973 5973 5973 5973 5973 5973 5972 5971 5970 5970 5969 5968 5967 5966 5965 5964 5963 5962 5961 5959 5957 5956 5954 5952
5949 5950 5950 5951 5952 5952 5952 5953 5954 5955 5956 5956 5957 5958 5959 5960 5961 5962 5962 5962 5963 5963 5963 5964 5964 5965 5966 5967 5968 5968 5969 5970 5971 5971 5972 5973 5973 5974 5974 5974 5974 5974 5974 5974 5975 5975 5974 5974 5974 5974 5974 5974 5973 5973 5973 5972 5972 5972 5972 5972 5972 5971 5971 5971 5971 5972 5971 5971 5970 5969 5969 5968 5967 5966 5964 5963 5962 5962 5961 5960 5958 5957 5955 5953 5951
5947 5947 5948 5949 5951 5952 5952 5952 5953 5953 5953 5954 5954 5955 5956 5958 5959 5960 5961 5961 5962 5962 5962 5962 5962 5963 5963 5964 5965 5966 5967 5967 5968 5969 5970 5970 5971 5972 5972 5973 5973 5973 5973 5973 5973 5973 5973 5973 5972 5972 5972 5972 5972 5972 5971 5971 5971 5971 5971 5970 5970 5970 5970 5970 5970 5970 5970 5969 5968 5967 5967 5967 5966 5965 5964 5962 5961 5961 5961 5959 5958 5956 5954 5952 5951
5945 5943 5943 5944 5947 5950 5951 5952 5952 5952 5952 5952 5952 5953 5954 5955 5956 5958 5959 5960 5961 5962 5962 5962 5962 5962 5962 5963 5963 5964 5964 5965 5965 5966 5967 5968 5968 5969 5970 5970 5971 5971 5971 5972 5972 5972 5972 5972 5971 5971 5971 5971 5970 5970 5970 5970 5969 5969 5969 5969 5968 5968 5968 5968 5968 5968 5968 5968 5967 5965 5965 5965 5964 5964 5963 5962 5960 5960 5959 5958 5957 5955 5953 5952 5950
5942 5941 5940 5940 5943 5946 5949 5950 5951 5952 5952 5951 5951 5951 5952 5953 5954 5955 5957 5958 5959 5960 5961 5962 5962 5962 5962 5962 5962 5962 5962 5963 5963 5964 5964 5965 5965 5966 5967 5967 5968 5968 5969 5969 5970 5970 5971 5970 5970 5970 5970 5969 5969 5969 5968 5968 5968 5968 5967 5967 5967 5966 5966 5966 5966 5966 5966 5966 5965 5964 5963 5963 5963 5962 5961 5961 5959 5958 5958 5957 5956 5954 5953 5951 5949
5938 5940 5940 5939 5940 5942 5945 5947 5948 5949 5949 5950 5950 5950 5950 5950 5951 5952 5954 5955 5956 5958 5959 5960 5961 5961 5962 5962 5962 5962 5962 5962 5962 5962 5962 5962 5962 5963 5963 5964 5964 5965 5966 5966 5967 5968 5968 5968 5968 5968 5968 5968 5968 5967 5967 5966 5966 5966 5965 5965 5965 5965 5965 5965 5964 5964 5964 5964 5964 5962 5961 5961 5961 5960 5959 5959 5957 5956 5956 5955 5954 5953 5952 5950 5949
5935 5937 5938 5937 5937 5938 5941 5943 5944 5945 5946 5947 5948 5948 5948 5948 5949 5950 5951 5952 5953 5954 5955 5956 5957 5958 5959 5960 5961 5961 5961 5961 5961 5960 5960 5960 5960 5960 5960 5961 5961 5961 5962 5963 5963 5964 5965 5965 5966 5965 5965 5966 5965 5965 5965 5964 5964 5963 5963 5963 5963 5963 5963 5963 5962 5962 5961 5961 5961 5961 5959 5958 5958 5958 5958 5957 5956 5955 5954 5953 5952 5952 5951 5949 5948
5931 5934 5935 5935 5934 5935 5937 5939 5941 5943 5944 5945 5945 5946 5947 5947 5947 5948 5949 5950 5951 5952 5953 5954 5954 5955 5956 5957 5958 5959 5959 5960 5959 5959 5959 5959 5959 5959 5959 5958 5958 5958 5958 5959 5959 5960 5961 5962 5962 5962 5962 5963 5963 5963 5962 5962 5962 5961 5961 5961 5960 5960 5960 5960 5960 5959 5958 5958 5958 5958 5958 5956 5955 5956 5955 5955 5954 5953 5952 5951 5950 5950 5949 5948 5947
5927 5930 5932 5932 5932 5933 5935 5937 5938 5940 5941 5942 5943 5943 5944 5944 5945 5946 5947 5948 5949 5951 5951 5952 5952 5953 5954 5954 5955 5956 5956 5957 5957 5957 5957 5957 5957 5957 5957 5957 5956 5956 5956 5956 5956 5956 5957 5958 5959 5959 5959 5960 5960 5960 5960 5960 5960 5959 5959 5959 5958 5957 5957 5958 5957 5956 5955 5954 5954 5955 5956 5954 5952 5953 5953 5952 5952 5951 5950 5949 5948 5948 5947 5946 5945
5924 5925 5927 5928 5929 5931 5932 5934 5935 5936 5937 5938 5940 5940 5940 5941 5941 5942 5943 5945 5946 5948 5949 5950 5950 5951 5951 5952 5952 5953 5953 5953 5953 5953 5954 5954 5955 5955 5955 5955 5955 5955 5955 5954 5954 5954 5954 5954 5955 5956 5956 5956 5957 5958 5958 5958 5957 5957 5957 5957 5955 5954 5955 5955 5954 5953 5953 5951 5949 5950 5952 5952 5949 5949 5949 5949 5949 5949 5948 5947 5946 5945 5945 5944 5943
5920 5922 5923 5924 5926 5927 5928 5930 5931 5932 5932 5933 5934 5936 5937 5937 5938 5939 5939 5941 5943 5944 5946 5947 5947 5948 5949 5949 5950 5950 5950 5950 5950 5950 5950 5951 5952 5953 5953 5953 5953 5954 5954 5954 5953 5952 5951 5952 5952 5953 5953 5953 5954 5954 5955 5955 5954 5954 5954 5954 5952 5951 5952 5953 5952 5951 5951 5949 5945 5945 5948 5949 5947 5946 5946 5946 5946 5945 5945 5944 5943 5943 5942 5941 5940
5916 5918 5919 5921 5922 5924 5925 5925 5926 5927 5928 5928 5929 5931 5933 5934 5935 5935 5935 5936 5938 5940 5941 5943 5944 5945 5946 5946 5947 5947 5948 5947 5948 5948 5948 5948 5949 5950 5950 5950 5951 5952 5952 5951 5951 5950 5950 5950 5951 5951 5951 5951 5951 5952 5952 5952 5951 5950 5951 5951 5949 5948 5949 5950 5949 5949 5949 5948 5943 5941 5944 5946 5945 5943 5943 5942 5943 5942 5941 5941 5940 5939 5938 5938 5937